Wind_Speed
26 29 30 30 29 27 27 27 26 24 23 22 20 19 19 21 24 27 28 28 28 27 26 25 23 23 24 23 22 21 21 19 19 20 21 21 21 21 21 22 23 23 23 23
24 25 27 29 30 28 28 28 27 25 24 22 20 19 19 21 22 24 26 27 26 26 26 26 25 25 25 24 24 23 22 21 22 23 25 25 25 25 26 26 27 27 27 26
22 23 26 28 29 29 29 28 28 26 25 23 21 21 20 21 22 24 25 26 26 26 26 26 27 27 26 27 26 24 24 25 26 27 29 29 29 29 30 30 30 30 30 29
20 23 26 28 29 30 29 29 29 28 26 24 24 23 22 24 26 27 28 27 26 26 26 27 27 29 29 29 29 28 29 30 31 31 31 32 32 32 34 34 33 33 33 33
19 22 25 27 27 29 28 29 30 30 29 29 27 26 25 27 29 29 30 30 29 28 29 29 30 31 31 32 33 33 34 34 34 35 35 36 35 36 36 36 35 35 35 36
18 21 23 24 26 27 28 28 30 32 32 31 28 28 27 27 30 31 32 32 31 31 32 33 33 33 34 35 36 37 36 36 36 37 38 38 37 37 37 36 36 37 37 38
17 20 21 23 25 25 27 29 30 31 33 32 28 28 28 27 29 33 34 34 33 33 33 34 35 36 36 36 36 38 38 37 38 39 40 40 38 38 38 38 39 39 38 38
14 17 20 22 24 25 26 28 29 29 31 30 28 29 30 28 29 32 34 35 35 35 34 34 35 37 37 38 39 39 39 39 40 41 41 40 39 39 39 39 40 40 40 40
11 14 18 20 21 22 24 25 26 27 28 28 30 32 31 29 29 31 33 34 35 35 35 36 37 38 39 40 41 41 41 41 41 41 41 41 41 41 41 41 41 41 42 42
10 13 15 18 19 20 21 22 24 26 26 27 28 30 31 29 28 28 30 32 34 35 36 36 37 39 41 41 42 42 42 42 42 42 42 41 41 41 42 41 42 42 43 44
10 12 13 17 19 18 19 22 25 25 25 26 27 29 31 29 28 29 30 31 34 35 36 37 39 41 42 42 42 43 43 43 43 42 42 41 40 41 41 42 42 43 44 45
8 10 12 16 19 19 20 22 24 26 26 26 27 31 32 31 29 29 30 31 33 35 36 38 39 39 41 41 42 42 42 42 42 41 41 41 41 42 43 44 45 45 46 48
7 9 11 14 17 19 21 22 25 26 26 27 28 32 33 33 32 31 31 31 30 31 32 34 35 36 38 39 39 39 40 40 40 40 41 42 43 44 45 46 47 48 50 52
8 8 11 14 17 20 24 25 26 27 28 28 30 32 33 34 33 32 30 30 29 30 30 31 32 34 34 35 37 38 38 39 40 42 43 43 45 46 48 49 51 53 55 57
6 8 10 12 15 17 21 26 27 27 29 31 31 32 33 32 32 32 30 29 27 27 28 29 28 30 32 34 36 37 38 40 42 43 44 46 47 49 50 51 53 55 56 57
5 6 8 11 14 15 14 18 24 25 27 30 31 31 32 31 30 29 29 28 28 28 28 29 28 28 30 31 33 35 37 39 41 42 44 46 47 49 50 50 51 51 52 53
5 6 7 9 12 14 13 13 16 21 25 28 28 28 29 29 28 28 27 25 25 27 29 30 30 30 30 30 32 34 36 38 39 41 42 43 44 45 46 47 48 49 50 52
5 5 6 8 10 12 12 13 13 14 17 21 23 24 24 25 25 26 26 28 28 27 28 29 30 30 30 30 31 32 33 35 37 39 40 41 42 43 44 45 47 48 49 50
6 6 8 9 11 11 12 13 14 15 15 17 20 21 23 24 25 24 25 25 25 25 26 26 26 27 28 28 30 31 32 34 35 37 38 39 40 41 42 43 45 46 47 48
9 8 9 10 10 11 12 12 13 14 15 16 17 19 20 21 22 23 23 23 22 23 23 24 25 25 25 27 28 29 31 32 33 34 35 36 38 39 40 41 42 43 45 46
10 10 10 10 10 11 12 12 12 13 14 15 16 17 17 17 17 19 19 19 19 21 21 22 23 24 24 25 26 27 28 29 31 32 33 34 35 36 37 38 39 41 41 41
12 11 11 11 11 10 11 11 11 12 13 14 15 16 17 16 17 18 18 18 19 19 20 20 21 23 24 24 26 26 27 27 28 28 29 31 32 33 34 35 36 36 36 36
13 12 12 11 11 12 12 12 12 12 13 13 13 14 14 15 16 16 16 17 17 18 19 20 20 21 22 23 23 23 23 24 24 25 26 28 29 30 31 32 32 32 32 31
14 14 13 12 12 12 13 13 13 13 13 13 13 13 14 14 14 14 15 16 16 17 18 19 20 20 20 20 20 20 21 22 22 23 24 25 26 27 27 27 27 27 27 25
16 15 14 14 13 13 13 13 13 13 13 13 13 13 13 13 14 14 14 15 15 16 17 18 18 18 18 18 18 19 20 20 21 22 23 23 23 24 24 25 24 23 22 21
16 15 15 15 14 14 14 14 13 13 13 13 12 12 12 12 12 12 13 13 14 14 14 15 15 16 16 17 17 18 18 19 20 20 20 20 21 21 22 22 21 20 19 18
Wind_Direction
222 222 220 220 220 221 221 219 216 208 205 212 213 208 205 208 211 215 218 222 227 234 239 244 248 250 252 253 257 256 259 262 262 268 273 275 278 282 284 286 288 288 287 289
220 219 217 218 219 219 219 216 210 201 205 210 209 204 204 204 209 215 219 225 232 237 241 246 248 253 256 258 262 263 262 265 267 269 274 274 275 279 282 284 285 285 285 286
220 216 214 215 216 216 217 212 204 199 203 209 210 206 205 209 215 218 224 229 235 240 243 247 252 256 261 260 264 265 263 264 265 269 272 271 274 277 280 280 281 282 284 284
216 215 215 214 215 213 212 209 204 201 202 202 210 211 209 214 219 222 227 232 237 242 246 250 255 258 261 262 263 263 267 268 265 267 270 273 274 277 278 279 277 280 282 281
213 213 215 215 213 212 207 205 205 204 206 206 212 216 213 216 220 225 229 234 240 245 250 253 256 260 263 265 266 267 268 269 269 270 273 275 273 277 278 278 278 279 281 281
211 211 211 211 212 211 206 205 208 209 212 211 214 221 220 221 224 228 231 235 241 245 250 254 257 261 263 265 267 268 269 271 270 270 274 275 274 277 278 280 281 279 281 283
209 207 207 207 210 211 211 211 212 214 217 216 216 226 226 224 226 229 232 236 240 244 249 254 257 259 262 264 265 269 272 271 273 275 275 275 278 280 281 282 280 282 284 283
203 202 205 207 211 213 214 217 219 222 223 222 223 229 230 227 228 231 233 235 238 242 246 251 255 258 261 264 267 270 271 273 274 276 277 274 278 278 280 282 281 283 283 284
197 193 204 209 212 217 218 221 223 226 228 228 227 229 233 231 232 233 235 236 240 243 247 251 255 258 261 264 267 270 273 275 276 277 278 278 278 278 279 281 281 282 282 284
202 197 199 206 210 214 217 220 223 225 227 227 225 229 233 236 239 237 236 238 240 243 247 251 255 258 261 264 267 269 272 274 276 277 278 278 278 279 280 281 282 283 284 284
211 205 201 206 207 210 214 218 222 225 226 228 228 231 234 239 241 243 243 242 244 246 248 251 254 256 259 262 265 267 270 272 274 275 276 276 277 279 280 281 283 284 284 285
221 213 203 206 206 209 215 218 221 224 225 229 233 236 237 243 249 251 251 252 251 250 250 251 252 253 256 259 263 266 268 270 271 273 274 276 278 279 280 281 283 284 284 284
238 225 212 212 213 216 221 222 224 226 227 229 235 240 240 246 254 260 260 260 259 259 257 256 255 256 258 259 261 264 266 268 270 272 274 276 278 279 280 281 282 283 283 284
253 243 228 218 218 223 228 228 229 231 232 232 236 242 245 249 254 260 265 265 264 263 263 261 258 257 257 258 259 262 264 267 269 271 273 275 277 279 280 281 282 282 282 283
262 254 248 244 237 241 237 233 232 233 234 235 238 243 248 251 254 261 265 270 271 267 266 261 260 259 260 262 262 264 266 269 271 272 273 275 276 277 279 281 282 282 283 283
282 263 257 252 250 253 253 246 239 238 239 240 242 246 250 253 258 265 271 271 270 268 266 264 263 264 266 266 266 267 269 271 273 274 275 276 277 278 279 281 283 284 285 286
298 281 270 262 263 262 259 256 251 249 245 244 248 250 252 256 266 270 273 276 278 275 274 275 272 272 272 271 274 276 277 277 276 277 280 282 282 283 284 285 288 289 289 289
321 308 295 286 288 283 273 271 268 274 266 257 256 257 261 265 271 275 278 282 282 283 280 278 279 278 276 277 278 279 279 279 280 282 284 286 288 290 291 290 291 291 291 291
339 324 309 297 295 293 291 293 290 285 285 272 268 269 272 272 277 279 281 284 285 286 285 282 281 281 279 278 279 282 282 283 285 287 288 290 292 292 292 292 292 293 293 294
352 337 323 314 306 302 306 298 295 289 284 284 280 278 277 276 278 281 282 282 282 284 286 286 287 286 284 283 283 284 287 289 291 292 293 294 294 294 294 295 296 296 296 296
353 343 332 324 317 310 308 306 302 297 294 291 288 287 285 285 284 283 282 283 286 287 286 286 285 285 287 288 290 292 294 295 295 296 297 297 297 297 298 299 300 300 301 301
354 345 338 332 328 323 320 313 307 304 300 297 294 292 290 288 289 289 288 289 289 288 287 287 288 288 289 292 293 294 295 297 298 299 300 301 302 302 302 303 304 305 305 306
354 348 342 337 332 328 325 321 316 312 307 303 298 296 296 292 291 290 289 288 290 288 289 291 292 293 294 296 296 297 299 300 302 304 306 307 308 308 309 310 310 311 311 311
354 351 347 342 337 333 329 325 321 317 312 309 306 303 300 298 295 293 293 291 293 293 294 294 295 296 297 298 299 300 302 304 306 309 311 314 315 317 318 319 318 318 318 318
353 350 347 344 340 337 332 328 325 322 319 315 310 307 304 301 297 295 295 295 294 295 295 295 296 297 297 299 301 304 306 308 310 313 315 318 321 324 325 326 326 327 326 326
351 348 345 344 342 337 334 332 329 325 322 320 316 312 308 305 303 301 300 300 301 301 300 299 300 300 301 302 304 307 309 312 315 318 320 323 326 329 330 332 334 336 336 337
Height
5788 5793 5798 5802 5806 5811 5815 5819 5823 5826 5828 5830 5833 5837 5840 5842 5844 5846 5849 5852 5856 5859 5862 5864 5866 5867 5868 5868 5869 5869 5869 5870 5869 5870 5870 5870 5870 5869 5869 5869 5867 5866 5864 5863
5784 5788 5792 5796 5800 5805 5809 5814 5819 5821 5823 5826 5829 5833 5835 5838 5841 5843 5845 5847 5850 5854 5856 5859 5860 5861 5862 5862 5863 5863 5863 5864 5864 5864 5863 5863 5863 5862 5862 5861 5860 5858 5857 5855
5779 5784 5786 5790 5795 5800 5804 5810 5814 5816 5818 5821 5825 5829 5832 5834 5836 5839 5841 5843 5845 5848 5851 5853 5855 5856 5857 5857 5857 5858 5858 5859 5858 5857 5856 5855 5855 5854 5854 5853 5852 5851 5849 5847
5774 5778 5781 5785 5790 5794 5800 5805 5808 5810 5813 5817 5821 5824 5827 5829 5832 5834 5837 5838 5840 5843 5845 5847 5849 5850 5852 5852 5852 5852 5853 5852 5851 5850 5848 5847 5847 5847 5845 5844 5843 5842 5841 5839
5770 5774 5777 5781 5786 5790 5795 5799 5802 5806 5808 5812 5815 5819 5823 5825 5827 5830 5832 5834 5836 5837 5839 5841 5843 5844 5845 5845 5845 5845 5845 5844 5844 5843 5841 5840 5840 5839 5837 5836 5834 5834 5833 5831
5766 5769 5773 5777 5781 5785 5789 5794 5797 5801 5804 5808 5811 5814 5818 5820 5822 5825 5827 5828 5830 5832 5833 5834 5836 5837 5838 5838 5839 5838 5836 5836 5836 5835 5834 5833 5832 5830 5829 5828 5826 5825 5824 5822
5763 5766 5769 5773 5777 5781 5785 5789 5793 5797 5800 5804 5808 5809 5812 5814 5816 5818 5821 5823 5824 5826 5827 5828 5829 5830 5831 5832 5832 5831 5829 5828 5828 5827 5826 5824 5823 5822 5821 5820 5816 5816 5815 5813
5760 5764 5767 5769 5773 5776 5780 5784 5789 5793 5796 5800 5803 5803 5806 5808 5810 5812 5814 5816 5817 5819 5821 5822 5823 5823 5824 5824 5823 5823 5820 5820 5820 5819 5816 5814 5814 5813 5814 5812 5809 5808 5807 5805
5757 5761 5764 5766 5769 5773 5776 5779 5784 5787 5790 5793 5795 5797 5800 5801 5803 5805 5806 5808 5809 5811 5813 5814 5815 5815 5816 5815 5815 5814 5813 5812 5812 5811 5810 5808 5807 5806 5805 5804 5803 5801 5799 5797
5755 5758 5761 5763 5766 5768 5772 5775 5778 5781 5784 5787 5790 5792 5794 5795 5796 5797 5798 5799 5801 5802 5804 5805 5806 5807 5807 5807 5807 5806 5805 5804 5804 5803 5801 5800 5799 5797 5796 5795 5793 5791 5789 5787
5753 5755 5758 5759 5761 5764 5768 5771 5773 5776 5778 5782 5785 5788 5787 5789 5789 5790 5790 5791 5793 5794 5795 5796 5797 5797 5798 5798 5798 5798 5797 5796 5795 5794 5793 5791 5790 5789 5787 5785 5783 5781 5779 5776
5752 5753 5754 5756 5758 5761 5764 5766 5768 5771 5774 5776 5779 5783 5780 5782 5782 5783 5783 5783 5784 5786 5787 5788 5788 5788 5789 5789 5789 5789 5788 5788 5787 5786 5784 5783 5781 5779 5777 5775 5773 5771 5768 5765
5751 5752 5753 5754 5758 5759 5760 5761 5763 5766 5769 5771 5773 5775 5774 5775 5776 5776 5776 5776 5777 5778 5779 5779 5780 5780 5780 5780 5781 5780 5779 5779 5778 5777 5776 5774 5772 5770 5768 5765 5763 5760 5757 5753
5749 5750 5752 5753 5753 5754 5755 5757 5759 5762 5763 5765 5767 5767 5768 5769 5770 5770 5769 5769 5769 5770 5771 5771 5771 5771 5772 5772 5772 5771 5771 5770 5769 5768 5766 5764 5762 5760 5758 5755 5752 5749 5745 5741
5748 5748 5749 5749 5750 5750 5751 5752 5754 5756 5758 5759 5760 5761 5762 5763 5763 5763 5763 5763 5763 5763 5764 5764 5764 5763 5763 5764 5763 5763 5762 5761 5760 5758 5756 5754 5752 5750 5747 5743 5740 5736 5732 5728
5746 5746 5746 5747 5747 5747 5748 5749 5750 5751 5752 5753 5754 5755 5756 5756 5756 5757 5757 5756 5757 5756 5756 5757 5757 5756 5756 5756 5755 5754 5753 5752 5750 5748 5746 5743 5741 5738 5735 5731 5727 5723 5719 5714
5745 5745 5745 5744 5744 5745 5745 5745 5745 5746 5747 5747 5748 5750 5750 5750 5750 5750 5750 5749 5749 5749 5749 5748 5748 5748 5748 5748 5747 5746 5744 5743 5741 5738 5735 5733 5730 5726 5723 5719 5714 5710 5705 5701
5744 5743 5743 5742 5743 5742 5744 5742 5742 5742 5741 5742 5742 5743 5744 5744 5744 5743 5743 5743 5742 5742 5742 5741 5740 5740 5740 5739 5738 5736 5735 5733 5731 5728 5725 5722 5718 5715 5711 5707 5702 5698 5693 5687
5743 5742 5741 5741 5740 5739 5739 5738 5738 5738 5737 5737 5738 5738 5738 5738 5738 5737 5737 5736 5736 5735 5734 5734 5733 5732 5731 5730 5729 5728 5725 5723 5721 5718 5715 5711 5708 5704 5700 5695 5690 5685 5680 5674
5742 5741 5740 5739 5738 5737 5737 5735 5734 5735 5734 5733 5732 5732 5732 5731 5732 5732 5731 5730 5729 5728 5727 5726 5725 5724 5723 5722 5720 5719 5716 5714 5711 5708 5705 5701 5697 5693 5689 5684 5678 5672 5667 5661
5741 5740 5738 5737 5735 5734 5733 5732 5731 5732 5731 5729 5728 5727 5727 5726 5726 5726 5724 5723 5723 5722 5721 5720 5718 5717 5716 5714 5712 5710 5708 5705 5702 5699 5695 5692 5688 5683 5678 5672 5667 5661 5655 5649
5740 5738 5736 5735 5733 5733 5730 5729 5728 5727 5725 5724 5723 5722 5722 5721 5720 5719 5718 5717 5717 5716 5715 5713 5712 5710 5709 5707 5704 5702 5700 5697 5694 5690 5687 5683 5678 5673 5668 5663 5657 5651 5644 5638
5739 5737 5735 5734 5733 5729 5727 5726 5724 5722 5721 5720 5719 5717 5717 5716 5715 5714 5713 5712 5711 5709 5708 5707 5705 5704 5702 5700 5697 5695 5692 5689 5686 5683 5679 5675 5670 5664 5659 5653 5647 5641 5635 5629
5738 5735 5733 5731 5729 5727 5725 5722 5720 5719 5717 5716 5714 5713 5712 5711 5710 5709 5708 5707 5705 5704 5703 5701 5699 5698 5696 5693 5691 5689 5686 5683 5680 5676 5672 5667 5662 5657 5651 5646 5640 5634 5629 5623
5736 5733 5731 5729 5726 5724 5722 5720 5718 5716 5714 5712 5710 5709 5708 5707 5705 5704 5703 5702 5700 5699 5697 5696 5694 5692 5690 5688 5685 5683 5680 5677 5674 5670 5665 5660 5656 5651 5646 5640 5635 5629 5624 5618
5735 5732 5730 5727 5725 5722 5720 5717 5715 5713 5711 5709 5707 5705 5704 5703 5701 5700 5699 5697 5696 5694 5692 5691 5689 5687 5685 5682 5680 5677 5674 5671 5667 5663 5659 5655 5651 5646 5642 5637 5631 5626 5621 5616